• In Uzbekistan
  • List of Countries
  • For 7 days
  • Water Temperature
  • Satellite Maps
  • Weather Map
  • Weather Widgets
  • user-avatar
    Login

    Hourly Weather Escaldes-Engordany

    Today, 17 January, Tuesday

    Time Temperature Precipitation Wind Pressure Humidity
    00:00 -10°C° 0.1 mm 4 mps 635 mmHg 89%
    01:00 -10°C° 0 mm 4 mps 635 mmHg 88%
    02:00 -11°C° 0 mm 4 mps 635 mmHg 87%
    03:00 -12°C° 0 mm 4 mps 634 mmHg 87%
    04:00 -14°C° 0 mm 4 mps 634 mmHg 85%
    05:00 -14°C° 0 mm 4 mps 634 mmHg 84%
    06:00 -15°C° 0 mm 4 mps 634 mmHg 83%
    07:00 -15°C° 0 mm 5 mps 635 mmHg 80%
    08:00 -14°C° 0 mm 5 mps 635 mmHg 77%
    09:00 -14°C° 0 mm 5 mps 636 mmHg 74%
    10:00 -13°C° 0 mm 5 mps 636 mmHg 73%
    11:00 -13°C° 0 mm 5 mps 636 mmHg 71%
    12:00 -12°C° 0 mm 6 mps 636 mmHg 69%
    13:00 -12°C° 0.1 mm 5 mps 636 mmHg 70%
    14:00 -12°C° 0.1 mm 5 mps 636 mmHg 71%
    15:00 -11°C° 0.1 mm 4 mps 636 mmHg 72%
    16:00 -12°C° 0 mm 4 mps 636 mmHg 74%
    17:00 -14°C° 0 mm 4 mps 636 mmHg 77%
    18:00 -14°C° 0 mm 4 mps 636 mmHg 79%
    19:00 -15°C° 0 mm 4 mps 636 mmHg 79%
    20:00 -15°C° 0 mm 4 mps 636 mmHg 80%
    21:00 -14°C° 0 mm 3 mps 636 mmHg 80%
    22:00 -14°C° 0 mm 3 mps 636 mmHg 80%
    23:00 -15°C° 0 mm 3 mps 636 mmHg 81%

    Tomorrow, 18 January, Wednesday

    Time Temperature Precipitation Wind Pressure Humidity
    00:00 -15°C° 0 mm 3 mps 636 mmHg 81%
    01:00 -15°C° 0 mm 3 mps 636 mmHg 81%
    02:00 -16°C° 0 mm 3 mps 636 mmHg 81%
    03:00 -15°C° 0 mm 2 mps 636 mmHg 81%
    04:00 -15°C° 0 mm 2 mps 636 mmHg 81%
    05:00 -15°C° 0 mm 2 mps 636 mmHg 80%
    06:00 -15°C° 0 mm 2 mps 636 mmHg 79%
    07:00 -14°C° 0 mm 2 mps 637 mmHg 76%
    08:00 -12°C° 0 mm 2 mps 638 mmHg 73%
    09:00 -10°C° 0 mm 2 mps 638 mmHg 70%
    10:00 -7°C° 0 mm 1 mps 639 mmHg 66%
    11:00 -4°C° 0 mm 1 mps 639 mmHg 63%
    12:00 -2°C° 0 mm 1 mps 640 mmHg 59%
    13:00 -2°C° 0 mm 1 mps 640 mmHg 61%
    14:00 -2°C° 0 mm 1 mps 640 mmHg 62%
    15:00 -3°C° 0 mm 1 mps 640 mmHg 64%
    16:00 -8°C° 0 mm 1 mps 638 mmHg 72%
    17:00 -12°C° 0 mm 0 mps 636 mmHg 80%
    18:00 -16°C° 0 mm 0 mps 635 mmHg 87%
    19:00 -15°C° 0 mm 0 mps 635 mmHg 87%
    20:00 -15°C° 0 mm 0 mps 635 mmHg 87%
    21:00 -15°C° 0 mm 0 mps 635 mmHg 87%
    22:00 -16°C° 0 mm 0 mps 635 mmHg 86%
    23:00 -16°C° 0 mm 0 mps 635 mmHg 85%

    Day after tomorrow, 19 January, Thursday

    Time Temperature Precipitation Wind Pressure Humidity
    00:00 -16°C° 0 mm 0 mps 635 mmHg 84%
    01:00 -16°C° 0 mm 0 mps 635 mmHg 83%
    02:00 -16°C° 0 mm 0 mps 635 mmHg 82%
    03:00 -16°C° 0 mm 0 mps 635 mmHg 81%
    04:00 -16°C° 0 mm 0 mps 635 mmHg 81%
    05:00 -16°C° 0 mm 0 mps 635 mmHg 80%
    06:00 -16°C° 0 mm 0 mps 635 mmHg 80%
    07:00 -12°C° 0 mm 0 mps 637 mmHg 74%
    08:00 -9°C° 0 mm 1 mps 638 mmHg 68%
    09:00 -6°C° 0 mm 1 mps 640 mmHg 62%
    10:00 -3°C° 0 mm 1 mps 640 mmHg 62%
    11:00 -2°C° 0 mm 1 mps 641 mmHg 61%
    12:00 -1°C° 0 mm 1 mps 641 mmHg 60%
    13:00 -1°C° 0 mm 1 mps 641 mmHg 63%
    14:00 -1°C° 0 mm 1 mps 640 mmHg 65%
    15:00 -1°C° 0 mm 1 mps 640 mmHg 67%
    16:00 -4°C° 0 mm 1 mps 639 mmHg 74%
    17:00 -8°C° 0 mm 1 mps 638 mmHg 81%
    18:00 -12°C° 0 mm 1 mps 636 mmHg 87%
    19:00 -12°C° 0 mm 1 mps 636 mmHg 88%
    20:00 -12°C° 0 mm 1 mps 636 mmHg 88%
    21:00 -12°C° 0 mm 1 mps 637 mmHg 88%
    22:00 -11°C° 0 mm 1 mps 637 mmHg 88%
    23:00 -11°C° 0 mm 1 mps 636 mmHg 89%

    20 January, Friday

    Time Temperature Precipitation Wind Pressure Humidity
    00:00 -11°C° 0 mm 1 mps 636 mmHg 89%
    01:00 -13°C° 0 mm 2 mps 636 mmHg 88%
    02:00 -13°C° 0 mm 2 mps 636 mmHg 88%
    03:00 -13°C° 0 mm 2 mps 636 mmHg 87%
    04:00 -10°C° 0.1 mm 2 mps 636 mmHg 86%
    05:00 -9°C° 0.1 mm 2 mps 637 mmHg 84%
    06:00 -7°C° 0.1 mm 1 mps 637 mmHg 82%
    07:00 -7°C° 0.1 mm 2 mps 638 mmHg 82%
    08:00 -5°C° 0.1 mm 2 mps 639 mmHg 81%
    09:00 -4°C° 0.1 mm 2 mps 639 mmHg 81%
    10:00 -3°C° 0.3 mm 2 mps 639 mmHg 81%
    11:00 -2°C° 0.3 mm 2 mps 639 mmHg 82%
    12:00 -2°C° 0.3 mm 2 mps 639 mmHg 82%
    13:00 -2°C° 0.2 mm 2 mps 639 mmHg 83%
    14:00 -1°C° 0.2 mm 2 mps 639 mmHg 85%
    15:00 -1°C° 0.2 mm 2 mps 639 mmHg 86%
    16:00 -3°C° 0.1 mm 2 mps 638 mmHg 89%
    17:00 -5°C° 0.1 mm 2 mps 638 mmHg 92%
    18:00 -6°C° 0.1 mm 2 mps 637 mmHg 96%
    19:00 -6°C° 0.1 mm 1 mps 637 mmHg 96%
    20:00 -6°C° 0.1 mm 1 mps 637 mmHg 96%
    21:00 -6°C° 0.1 mm 1 mps 637 mmHg 96%
    22:00 -7°C° 0 mm 1 mps 637 mmHg 95%
    23:00 -8°C° 0 mm 1 mps 637 mmHg 95%

    21 January, Saturday

    Time Temperature Precipitation Wind Pressure Humidity
    00:00 -8°C° 0 mm 1 mps 636 mmHg 95%
    01:00 -8°C° 0 mm 1 mps 636 mmHg 94%
    02:00 -8°C° 0 mm 1 mps 636 mmHg 94%
    03:00 -8°C° 0 mm 1 mps 636 mmHg 93%
    04:00 -8°C° 0 mm 1 mps 636 mmHg 93%
    05:00 -8°C° 0 mm 1 mps 636 mmHg 93%
    06:00 -8°C° 0 mm 1 mps 636 mmHg 93%
    07:00 -6°C° 0 mm 1 mps 637 mmHg 90%
    08:00 -3°C° 0 mm 1 mps 638 mmHg 87%
    09:00 -1°C° 0 mm 1 mps 639 mmHg 84%
    10:00 0°C° 0 mm 1 mps 640 mmHg 81%
    11:00 +1°C° 0 mm 1 mps 640 mmHg 78%
    12:00 +2°C° 0 mm 1 mps 640 mmHg 76%
    13:00 +2°C° 0 mm 1 mps 640 mmHg 77%
    14:00 +2°C° 0 mm 1 mps 639 mmHg 78%
    15:00 +2°C° 0 mm 1 mps 639 mmHg 79%
    16:00 0°C° 0 mm 1 mps 638 mmHg 84%
    17:00 -3°C° 0 mm 1 mps 637 mmHg 89%
    18:00 -7°C° 0 mm 1 mps 636 mmHg 95%
    19:00 -7°C° 0 mm 1 mps 636 mmHg 95%
    20:00 -8°C° 0 mm 1 mps 636 mmHg 95%
    21:00 -9°C° 0 mm 1 mps 635 mmHg 94%
    22:00 -9°C° 0 mm 1 mps 635 mmHg 94%
    23:00 -9°C° 0 mm 1 mps 635 mmHg 94%

    22 January, Sunday

    Time Temperature Precipitation Wind Pressure Humidity
    00:00 -9°C° 0 mm 1 mps 635 mmHg 93%
    01:00 -8°C° 0 mm 1 mps 635 mmHg 93%
    02:00 -8°C° 0 mm 1 mps 635 mmHg 92%
    03:00 -8°C° 0 mm 1 mps 635 mmHg 91%
    04:00 -7°C° 0 mm 1 mps 635 mmHg 91%
    05:00 -7°C° 0 mm 1 mps 635 mmHg 91%
    06:00 -7°C° 0 mm 1 mps 635 mmHg 91%
    07:00 -6°C° 0 mm 1 mps 636 mmHg 88%
    08:00 -4°C° 0 mm 1 mps 636 mmHg 85%
    09:00 -3°C° 0 mm 1 mps 637 mmHg 82%
    10:00 -1°C° 0 mm 1 mps 637 mmHg 79%
    11:00 0°C° 0 mm 1 mps 637 mmHg 75%
    12:00 +1°C° 0 mm 1 mps 637 mmHg 71%
    13:00 +1°C° 0.1 mm 1 mps 637 mmHg 74%
    14:00 +1°C° 0.1 mm 1 mps 636 mmHg 76%
    15:00 +1°C° 0.1 mm 1 mps 636 mmHg 79%
    16:00 0°C° 0.7 mm 1 mps 636 mmHg 84%
    17:00 0°C° 0.7 mm 1 mps 635 mmHg 88%
    18:00 -1°C° 0.7 mm 1 mps 635 mmHg 93%
    19:00 -1°C° 1 mm 1 mps 635 mmHg 93%
    20:00 -1°C° 1 mm 1 mps 634 mmHg 94%
    21:00 0°C° 1 mm 1 mps 634 mmHg 94%
    22:00 0°C° 1.6 mm 1 mps 634 mmHg 94%
    23:00 -1°C° 1.6 mm 2 mps 634 mmHg 94%
    Show more